Location: Barcelona
(41.3830°N, 2.1830°E)
Time: 19:26:02
(UTC+02:00)

ISS - Pass Details

Date: 25 September 2020
Orbit: 419 x 421 km, 51.6° (Epoch: 30 September)

Event Time Altitude Azimuth Distance (km) Brightness Sun altitude
Rises 20:55:26 0° 291° (WNW) 2,366 1.9 -14.4°
Reaches altitude 10° 20:58:13 10° 315° (NW) 1,502 -0.1 -14.9°
Maximum altitude 21:00:17 15° 353° (N) 1,229 -1.2 -15.3°
Drops below altitude 10° 21:02:20 10° 31° (NNE) 1,503 -1.1 -15.7°
Enters shadow 21:02:33 - 34° (NNE) 1,557 -1.1 -15.7°
